User: anonymous
Location: Caltech
(34.1382°N, 118.1253°W)
Time: 20:47:05
(UTC-07:00)
Language:

Cosmos 1975 - Orbit

View from above orbital plane
View from above orbital plane
View from above satellite
View from above satellite

Ground track
Ground track

The orbit data is extracted from the following two-line orbital elements,

1 19573U 88093A   14261.38919636  .00003865  00000-0  30215-3 0  3059
2 19573 082.5209 234.0040 0017636 106.8746 253.4414 15.00704464409176
Epoch (UTC): 18 September 2014 09:20:26
Eccentricity: 0.0017636
inclination: 82.5209°
perigee height: 552 km
apogee height: 577 km
right ascension of ascending node: 234.0040°
argument of perigee: 106.8746°
revolutions per day: 15.00704464
mean anomaly at epoch: 253.4414°
orbit number at epoch: 40917

The dashed part of the orbit path shows where the satellite is in the earth's shadow,  

DLR